Date String (YYYY-MM-DD hh:mm:ss) UTC,Instrument flags,absolute air pressure of the measurement (hPa),sample flow rate (lpm),inlet stack bypass flow (lpm),air temperature of the measurement (°C),ambient temperature measured by the external sensor (°C),aerosol sample conditioner tube jacket temperature (°C),OPC LED temperature (°C),internal box temperature (°C),relative humidity of the measurement (%),span deviation,mass concentration of particles derived from Lorenz-Mie calculation of OPC scattering (μg/m³),mass concentration of particles derived from Lorenz-Mie calculation of OPC scattering (μg/m³),mass concentration of particles derived from Lorenz-Mie calculation of OPC scattering (μg/m³)
DateTimeUTC,F1_M11,P_M11,Q1_M11,Q2_M11,T1_M11,T2_M11,T3_M11,T4_M11,T5_M11,U1_M11,ZSPAN_M11,X2_M11,X0_M11,X1_M11
2024-03-20 10:00:00,SystemResetWarning,0827.2,5.00,000.00,020.8,020.0,000.0,029.4,022.6,13.8,0000.0,0001.65,0005.58,0000.89
2024-03-20 10:01:00,SystemResetWarning,0827.4,5.00,000.00,020.8,020.0,000.0,029.4,022.6,13.8,0000.0,0001.66,0005.92,0000.90
2024-03-20 10:02:00,SystemResetWarning,0827.7,4.99,000.00,020.8,019.9,000.0,029.4,022.5,14.7,0000.0,0001.69,0006.44,0000.91
2024-03-20 10:03:00,SystemResetWarning,0827.5,5.00,000.00,020.8,019.9,000.0,029.4,022.5,15.8,0000.0,0001.71,0006.48,0000.92
2024-03-20 10:04:00,SystemResetWarning,0827.5,5.00,000.00,020.7,019.9,000.0,029.4,022.5,16.4,0000.0,0001.73,0006.97,0000.95
2024-03-20 10:05:00,SystemResetWarning,0827.6,5.01,000.00,020.7,019.9,000.0,029.3,022.5,16.5,0000.0,0001.78,0006.89,0001.00
2024-03-20 10:06:00,SystemResetWarning,0827.5,5.01,000.00,020.7,019.9,000.0,029.3,022.5,15.2,0000.0,0001.91,0007.38,0001.05
2024-03-20 10:07:00,SystemResetWarning,0827.6,4.99,000.00,020.7,019.9,000.0,029.3,022.5,14.0,0000.0,0001.97,0007.45,0001.07
2024-03-20 10:08:00,SystemResetWarning,0827.7,4.99,000.00,020.7,019.9,000.0,029.3,022.5,15.6,0000.0,0002.01,0007.52,0001.08
2024-03-20 10:09:00,SystemResetWarning,0827.7,4.99,000.00,020.7,019.9,000.0,029.3,022.5,16.4,0000.0,0002.02,0007.29,0001.12
2024-03-20 10:10:00,SystemResetWarning,0827.7,5.00,000.00,020.7,019.9,000.0,029.3,022.5,16.6,0000.0,0002.11,0007.54,0001.16
2024-03-20 10:11:00,SystemResetWarning,0827.7,5.00,000.00,020.7,019.8,000.0,029.3,022.5,16.6,0000.0,0002.25,0007.78,0001.21
2024-03-20 10:12:00,SystemResetWarning,0827.7,5.00,000.00,020.7,019.9,000.0,029.3,022.5,16.5,0000.0,0002.33,0007.67,0001.25
2024-03-20 10:13:00,SystemResetWarning,0827.7,5.00,000.00,020.7,019.9,000.0,029.3,022.5,16.4,0000.0,0002.40,0007.52,0001.30
2024-03-20 10:14:00,SystemResetWarning,0827.7,5.00,000.00,020.7,019.9,000.0,029.3,022.5,16.1,0000.0,0002.43,0007.53,0001.32
2024-03-20 10:15:00,SystemResetWarning,0827.7,4.99,000.00,020.7,019.9,000.0,029.3,022.5,15.9,0000.0,0002.44,0006.61,0001.32
2024-03-20 10:16:00,SystemResetWarning,0827.7,5.00,000.00,020.7,019.9,000.0,029.3,022.5,15.9,0000.0,0002.43,0005.68,0001.31
2024-03-20 10:17:00,SystemResetWarning,0827.8,5.00,000.00,020.7,019.9,000.0,029.3,022.5,15.8,0000.0,0002.44,0005.45,0001.31
2024-03-20 10:18:00,SystemResetWarning,0827.8,5.00,000.00,020.7,019.9,000.0,029.3,022.5,16.0,0000.0,0002.46,0005.73,0001.34
2024-03-20 10:19:00,SystemResetWarning,0827.7,5.00,000.00,020.7,019.9,000.0,029.3,022.5,16.1,0000.0,0002.50,0006.42,0001.36
2024-03-20 10:20:00,SystemResetWarning,0827.8,5.00,000.00,020.7,019.9,000.0,029.3,022.5,16.2,0000.0,0002.51,0006.34,0001.36
2024-03-20 10:21:00,SystemResetWarning,0827.8,5.00,000.00,020.7,019.9,000.0,029.3,022.5,16.2,0000.0,0002.49,0005.91,0001.34
2024-03-20 10:22:00,SystemResetWarning,0827.8,5.00,000.00,020.7,019.9,000.0,029.3,022.5,16.3,0000.0,0002.43,0005.96,0001.34
2024-03-20 10:23:00,SystemResetWarning,0827.9,5.01,000.00,020.7,019.9,000.0,029.3,022.5,16.4,0000.0,0002.43,0005.82,0001.35
2024-03-20 10:24:00,SystemResetWarning,0827.9,5.00,000.00,020.7,019.9,000.0,029.3,022.5,16.5,0000.0,0002.40,0005.95,0001.36
2024-03-20 10:25:00,SystemResetWarning,0828.0,5.00,000.00,020.7,019.9,000.0,029.3,022.5,16.6,0000.0,0002.47,0006.17,0001.39
2024-03-20 10:26:00,SystemResetWarning,0828.0,5.00,000.00,020.7,019.9,000.0,029.3,022.5,16.8,0000.0,0002.54,0006.43,0001.43
2024-03-20 10:27:00,SystemResetWarning,0828.1,5.00,000.00,020.7,019.9,000.0,029.3,022.5,16.9,0000.0,0002.60,0007.67,0001.47
2024-03-20 10:28:00,SystemResetWarning,0828.1,5.01,000.00,020.7,019.9,000.0,029.3,022.5,17.0,0000.0,0002.65,0007.66,0001.51
2024-03-20 10:29:00,SystemResetWarning,0828.1,5.00,000.00,020.7,019.9,000.0,029.3,022.5,17.2,0000.0,0002.72,0007.57,0001.56
2024-03-20 10:30:00,SystemResetWarning,0828.1,5.00,000.00,020.7,019.9,000.0,029.3,022.5,17.2,0000.0,0002.74,0007.12,0001.60
2024-03-20 10:31:00,SystemResetWarning,0828.1,5.00,000.00,020.7,019.9,000.0,029.3,022.5,17.2,0000.0,0002.82,0007.27,0001.64
2024-03-20 10:32:00,SystemResetWarning,0828.1,4.99,000.00,020.7,019.9,000.0,029.2,022.5,17.3,0000.0,0002.84,0007.34,0001.67
2024-03-20 10:33:00,SystemResetWarning,0828.1,5.00,000.00,020.6,019.9,000.0,029.2,022.5,17.3,0000.0,0002.79,0006.92,0001.70
2024-03-20 10:34:00,SystemResetWarning,0828.1,4.99,000.00,020.6,019.9,000.0,029.2,022.5,17.2,0000.0,0002.83,0007.01,0001.73
2024-03-20 10:35:00,SystemResetWarning,0828.1,5.00,000.00,020.6,019.9,000.0,029.2,022.5,17.3,0000.0,0002.93,0007.08,0001.74
2024-03-20 10:36:00,SystemResetWarning,0828.1,5.00,000.00,020.6,019.9,000.0,029.2,022.5,17.3,0000.0,0002.95,0006.95,0001.75
2024-03-20 10:37:00,SystemResetWarning,0828.2,5.00,000.00,020.6,019.9,000.0,029.2,022.5,17.3,0000.0,0002.94,0006.88,0001.75
2024-03-20 10:38:00,SystemResetWarning,0828.2,5.01,000.00,020.6,019.9,000.0,029.2,022.5,17.3,0000.0,0002.90,0005.44,0001.73
2024-03-20 10:39:00,SystemResetWarning,0828.2,5.00,000.00,020.6,019.9,000.0,029.2,022.4,17.3,0000.0,0002.82,0005.18,0001.70
2024-03-20 10:40:00,SystemResetWarning,0828.2,5.00,000.00,020.6,019.9,000.0,029.2,022.4,17.2,0000.0,0002.78,0005.52,0001.65
2024-03-20 10:41:00,SystemResetWarning,0828.2,5.00,000.00,020.6,019.9,000.0,029.2,022.4,17.4,0000.0,0002.78,0005.54,0001.64
2024-03-20 10:42:00,SystemResetWarning,0828.2,5.00,000.00,020.6,019.9,000.0,029.2,022.4,17.6,0000.0,0002.72,0005.49,0001.62
2024-03-20 10:43:00,SystemResetWarning,0828.2,5.00,000.00,020.6,019.9,000.0,029.2,022.4,17.6,0000.0,0002.67,0005.30,0001.60
2024-03-20 10:44:00,SystemResetWarning,0828.2,5.00,000.00,020.6,019.8,000.0,029.2,022.4,17.5,0000.0,0002.73,0005.45,0001.58
2024-03-20 10:45:00,SystemResetWarning,0828.2,5.01,000.00,020.6,019.8,000.0,029.2,022.4,17.6,0000.0,0002.65,0005.30,0001.55
2024-03-20 10:46:00,SystemResetWarning,0828.2,5.00,000.00,020.6,019.8,000.0,029.2,022.3,17.6,0000.0,0002.51,0006.96,0001.51
2024-03-20 10:47:00,SystemResetWarning,0828.3,5.00,000.00,020.6,019.8,000.0,029.2,022.3,17.7,0000.0,0002.39,0007.22,0001.48
2024-03-20 10:48:00,SystemResetWarning,0828.3,5.00,000.00,020.5,019.8,000.0,029.2,022.3,17.6,0000.0,0002.34,0007.17,0001.47
2024-03-20 10:49:00,SystemResetWarning,0828.3,4.99,000.00,020.5,019.8,000.0,029.2,022.3,17.4,0000.0,0002.36,0007.91,0001.47
2024-03-20 10:50:00,SystemResetWarning,0828.4,4.99,000.00,020.5,019.7,000.0,029.2,022.3,17.3,0000.0,0002.44,0008.27,0001.48
2024-03-20 10:51:00,SystemResetWarning,0828.3,5.00,000.00,020.5,019.7,000.0,029.1,022.3,17.2,0000.0,0002.44,0008.22,0001.47
2024-03-20 10:52:00,SystemResetWarning,0828.3,5.00,000.00,020.5,019.7,000.0,029.1,022.3,17.2,0000.0,0002.38,0008.15,0001.46
2024-03-20 10:53:00,SystemResetWarning,0828.4,5.00,000.00,020.5,019.7,000.0,029.1,022.2,17.2,0000.0,0002.35,0008.21,0001.44
2024-03-20 10:54:00,SystemResetWarning,0828.4,5.01,000.00,020.5,019.7,000.0,029.1,022.2,17.1,0000.0,0002.33,0008.32,0001.43
2024-03-20 10:55:00,SystemResetWarning,0828.4,5.00,000.00,020.5,019.7,000.0,029.1,022.2,17.2,0000.0,0002.25,0008.20,0001.42
2024-03-20 10:56:00,SystemResetWarning,0828.4,5.01,000.00,020.4,019.7,000.0,029.1,022.2,17.2,0000.0,0002.25,0008.19,0001.41
2024-03-20 10:57:00,SystemResetWarning,0828.5,5.00,000.00,020.4,019.6,000.0,029.1,022.2,17.2,0000.0,0002.29,0007.02,0001.41
2024-03-20 10:58:00,SystemResetWarning,0828.4,4.99,000.00,020.4,019.6,000.0,029.1,022.2,17.1,0000.0,0002.37,0007.08,0001.40
2024-03-20 10:59:00,SystemResetWarning,0828.5,5.00,000.00,020.4,019.6,000.0,029.1,022.2,17.1,0000.0,0002.38,0007.13,0001.40
